Location: Bishopstone
(51.0167°N, 1.9000°W)
Time: 07:15:33
(UTC+00:00)

Spot 2 Rocket - Pass Details

Date: 16 September 2019
Orbit: 758 x 772 km, 98.6° (Epoch: 22 October)

Event Time Altitude Azimuth Distance (km) Brightness Sun altitude
Exits shadow 19:57:19 25° 112° (ESE) 1,503 4.4 -15.5°
Maximum altitude 19:59:33 38° 64° (ENE) 1,159 4.1 -15.9°
Drops below altitude 10° 20:04:11 10° 358° (N) 2,301 6.3 -16.5°
Sets 20:06:37 0° 351° (N) 3,230 7.3 -16.9°
